GFSNIL_sfc_30mbdewp_000.txt.gz
Dewpoint
34 34 33 33 33 33 33 33 36 37 37 36 38 38 38 37 38 38 38 36 36 35
34 34 32 31 32 33 32 36 37 37 37 37 38 39 36 35 33 35 35 34 34 33
33 33 33 31 31 31 34 37 37 36 34 34 32 32 34 35 36 36 35 34 32 31
32 32 31 30 31 32 35 33 30 30 30 29 31 32 33 33 32 29 29 28 25 24
29 26 28 29 30 30 27 27 27 27 27 28 27 28 28 26 25 24 22 22 24 23
25 24 27 28 32 33 33 31 29 28 27 28 27 26 24 23 22 23 23 24 23 23
30 27 31 36 36 35 34 32 31 31 29 27 23 21 21 22 22 22 21 21 20 20
36 37 36 36 36 36 35 35 35 34 26 22 20 20 23 23 21 21 20 20 21 21
38 37 36 36 35 35 35 35 36 29 20 19 21 26 25 25 24 23 22 21 21 21
28 28 30 31 32 29 23 21 19 18 20 22 23 26 25 24 24 24 23 22 22 22
28 23 21 20 19 18 17 16 17 19 23 22 21 22 22 21 22 21 21 21 22 22
22 21 21 20 17 16 16 17 21 23 20 19 19 21 21 21 21 20 20 22 23 23
22 22 20 17 16 17 18 20 19 18 19 19 19 20 21 21 21 21 22 22 21 21
22 21 18 17 18 18 19 18 16 17 18 18 19 20 21 20 21 23 22 22 22 23

GFSNIL_sfc_30mbdewp_003.txt.gz
Dewpoint
39 36 35 34 35 34 33 34 37 36 36 38 38 38 39 39 38 36 36 37 37 37
37 35 35 34 33 33 35 36 37 38 37 36 36 36 35 34 33 34 35 35 35 35
35 34 33 31 33 34 36 37 35 31 30 30 30 31 31 31 33 33 33 33 33 33
34 31 29 31 33 34 34 32 30 30 31 32 33 32 31 31 30 27 27 28 28 27
30 27 30 31 33 35 34 32 31 30 33 33 31 31 28 26 24 21 19 20 21 20
31 29 31 36 36 36 35 34 35 35 34 31 26 25 22 22 22 22 22 23 23 22
35 34 36 36 36 36 35 33 33 33 34 31 24 20 19 20 22 22 20 21 20 19
37 37 35 31 30 30 31 33 34 34 31 23 20 17 22 22 21 21 21 21 20 20
28 28 27 28 29 28 25 21 21 20 19 20 20 27 25 26 23 23 21 20 19 19
30 26 21 21 20 19 19 18 17 18 19 21 23 24 24 23 20 20 19 18 17 17
26 20 20 20 19 18 17 17 17 20 21 19 17 20 21 21 20 20 20 19 18 18
21 20 20 19 17 17 17 17 19 17 17 17 17 19 19 20 20 20 20 19 20 20
21 20 19 18 17 17 17 17 18 17 17 19 19 19 20 19 19 19 19 19 20 21
20 20 19 17 17 16 16 19 20 21 21 20 18 19 19 18 19 20 20 20 20 22

GFSNIL_sfc_30mbdewp_006.txt.gz
Dewpoint
37 37 34 33 33 32 32 34 37 37 36 36 37 37 38 37 37 36 37 37 36 36
39 36 35 33 33 32 34 34 36 37 35 31 32 32 33 34 35 34 33 33 32 33
36 35 33 32 32 33 35 36 33 31 31 31 33 35 35 35 34 33 32 30 28 24
35 33 32 32 33 34 34 32 31 30 32 33 35 37 37 34 32 26 25 23 22 20
33 32 32 33 34 34 34 34 34 35 36 36 36 32 30 29 26 22 20 20 20 18
34 33 33 34 34 36 36 36 36 34 33 34 32 31 27 22 21 21 21 20 18 18
33 36 36 36 34 32 30 29 28 26 25 25 23 21 19 18 19 19 18 19 20 20
30 29 28 26 25 23 21 18 18 17 17 18 18 16 22 18 19 20 20 20 20 19
28 26 23 21 20 17 16 17 17 17 17 17 17 25 25 24 20 19 18 17 17 17
27 23 20 17 15 15 16 17 17 17 19 19 19 21 21 22 19 17 17 18 17 16
24 20 17 15 15 16 16 16 17 18 18 18 17 19 21 20 18 19 19 18 17 16
22 20 15 15 16 17 17 17 17 18 18 18 18 20 20 19 19 18 18 18 17 19
22 18 16 17 17 18 17 17 19 21 21 20 20 20 19 19 18 19 21 21 21 22
21 17 17 17 18 19 18 20 23 25 22 22 20 18 18 18 19 21 20 19 20 21

GFSNIL_sfc_30mbdewp_009.txt.gz
Dewpoint
38 37 36 35 33 32 32 33 34 36 36 36 37 36 36 36 37 36 37 36 37 37
38 36 35 34 33 32 33 33 33 34 33 34 34 37 36 36 36 36 36 36 35 34
35 35 33 32 32 32 33 33 33 33 33 34 37 36 36 35 34 35 34 32 30 29
34 33 32 31 31 34 35 34 35 36 36 36 35 36 37 34 33 33 33 30 27 24
31 31 30 31 33 34 33 35 35 35 35 34 36 36 34 33 31 27 26 25 25 25
29 30 31 31 30 31 30 28 28 28 27 25 24 22 20 19 20 22 22 21 20 19
29 29 28 29 27 24 22 20 18 17 17 17 17 17 16 18 19 18 17 17 18 18
27 27 26 25 23 21 18 17 16 16 17 17 17 17 21 21 20 19 18 19 18 18
26 28 26 22 19 16 15 16 17 17 17 17 16 23 23 22 19 17 16 16 16 17
27 28 23 20 15 15 15 16 16 16 16 17 18 21 22 22 20 18 17 17 18 18
27 27 22 18 15 15 15 16 16 16 18 19 18 23 23 21 19 18 18 18 18 18
26 26 21 16 15 16 16 16 16 18 20 21 21 22 23 21 18 19 18 17 18 20
23 23 20 17 16 16 15 16 20 22 22 23 21 24 20 21 18 19 19 19 18 20
26 23 19 16 16 16 16 20 25 27 25 22 23 20 19 20 18 19 22 20 21 23

GFSNIL_sfc_30mbdewp_012.txt.gz
Dewpoint
41 39 38 38 36 36 35 36 37 38 37 39 40 39 39 38 38 37 37 36 37 37
39 39 37 35 36 35 37 36 36 37 37 38 38 38 37 37 36 37 37 37 37 36
37 37 35 35 35 36 36 35 35 36 37 37 37 37 37 38 38 36 35 35 35 35
35 34 34 34 35 35 35 35 34 34 33 33 34 37 37 37 37 34 32 32 31 32
33 32 32 33 32 32 32 33 31 30 29 28 29 28 29 30 29 29 29 28 27 27
30 30 30 30 31 31 30 29 25 23 22 21 21 21 20 20 23 23 22 22 22 22
30 29 28 29 29 27 26 23 21 21 21 22 20 19 21 21 22 22 21 21 21 21
29 28 29 30 28 25 23 20 20 20 21 21 20 19 22 22 21 21 20 20 20 20
32 29 29 30 27 23 21 20 20 20 20 21 19 23 23 24 22 21 21 20 19 20
34 33 31 29 24 20 19 20 21 21 21 21 23 24 25 24 22 21 19 19 19 19
34 32 27 26 23 20 19 20 20 22 22 23 22 23 24 25 22 20 19 20 18 18
31 27 28 24 21 20 19 20 22 23 24 24 24 24 26 27 23 22 20 19 20 21
32 30 29 27 21 19 20 21 26 27 26 26 24 25 25 25 23 21 20 21 21 20
35 33 31 24 19 20 21 23 26 26 27 25 24 23 21 24 23 21 20 20 20 21

GFSNIL_sfc_30mbdewp_015.txt.gz
Dewpoint
39 39 37 34 34 34 37 36 36 36 37 38 38 38 38 37 37 37 37 36 36 37
39 36 34 34 36 36 36 34 35 37 37 37 37 37 37 37 37 37 37 37 36 36
36 36 35 36 34 34 34 34 34 34 34 34 34 35 36 36 35 35 35 34 34 34
33 34 34 34 33 32 33 32 33 31 30 27 28 28 30 31 33 33 30 30 26 25
34 31 31 31 31 31 30 31 32 26 23 23 22 23 22 23 25 24 23 22 22 22
32 31 31 28 31 30 30 26 23 22 22 22 22 21 23 23 23 23 22 22 21 20
35 34 31 30 29 27 26 22 21 21 21 21 22 23 22 21 21 21 21 22 22 21
36 33 33 34 32 34 26 22 20 20 21 22 22 22 23 23 22 22 21 22 21 20
35 35 35 35 36 31 23 20 19 20 22 23 22 25 25 25 23 22 21 19 18 20
37 36 36 36 35 24 20 19 19 22 23 22 24 26 26 25 24 22 21 19 19 18
34 35 35 36 32 21 19 19 22 23 25 24 24 25 27 29 27 23 22 21 20 19
34 34 34 33 24 23 20 23 24 26 25 24 25 26 27 26 24 23 22 22 20 20
34 35 34 34 31 22 22 26 26 26 26 26 25 23 20 27 24 21 21 20 20 19
32 34 33 31 26 22 23 26 24 22 23 23 21 20 19 20 19 19 20 18 18 20

GFSNIL_sfc_30mbdewp_018.txt.gz
Dewpoint
39 37 36 35 35 37 35 34 35 36 37 37 37 37 37 37 37 37 35 35 35 35
39 37 36 35 37 35 34 33 33 35 35 36 35 36 36 35 34 35 34 34 35 34
36 37 36 36 35 34 33 33 33 32 32 30 28 29 30 30 31 33 30 28 25 24
33 35 36 35 34 33 33 33 31 32 26 24 23 23 23 24 26 24 23 23 23 22
33 33 33 33 33 33 32 32 31 27 22 23 22 22 22 23 24 22 22 22 22 21
34 32 32 33 32 32 31 32 29 23 22 21 22 22 23 22 22 22 22 22 22 21
34 36 35 31 34 35 35 33 32 23 21 22 23 23 22 22 22 22 22 22 22 21
35 35 34 35 36 36 34 35 27 21 22 23 23 22 23 23 22 22 22 21 21 19
35 35 35 36 36 37 36 26 21 22 24 23 22 25 25 26 24 23 23 21 20 20
34 34 35 36 37 35 32 26 22 23 23 23 24 25 27 28 26 25 24 22 21 20
33 33 34 35 35 33 27 26 23 25 25 23 24 28 27 26 25 24 23 22 21 20
33 32 34 33 33 33 30 23 26 25 24 25 24 22 21 25 22 21 20 20 20 19
33 34 33 33 31 32 23 26 25 24 23 22 19 19 18 19 22 18 18 19 18 18
29 29 29 30 28 23 26 24 22 19 21 20 20 18 16 16 18 18 19 18 18 19

GFSNIL_sfc_30mbdewp_021.txt.gz
Dewpoint
38 37 36 36 36 35 36 34 34 35 37 37 37 36 37 37 35 35 34 33 33 33
38 38 36 36 36 36 35 34 33 34 35 34 35 33 35 34 31 32 33 32 29 25
37 38 38 36 36 36 34 34 33 33 33 31 28 27 27 26 27 30 25 25 23 22
34 34 35 36 35 34 33 34 33 33 33 25 24 23 23 23 26 24 23 23 22 22
33 34 33 34 34 34 33 33 32 30 28 25 23 23 22 22 24 22 21 22 22 21
33 35 35 35 34 32 32 33 33 34 30 24 23 23 23 23 22 21 22 22 21 22
33 33 32 32 32 32 35 35 34 34 27 25 24 24 22 21 22 22 22 22 23 22
33 34 35 34 35 36 37 36 34 30 23 24 24 22 22 23 23 23 23 23 23 22
34 35 34 35 36 36 36 29 31 25 24 23 22 24 26 29 27 25 24 24 23 22
32 32 32 34 35 35 34 34 26 24 24 24 23 27 28 26 26 24 24 22 21 19
32 32 32 34 33 31 29 28 24 25 24 24 25 23 21 25 22 20 21 18 19 19
31 32 32 33 32 32 32 26 25 24 24 21 19 20 18 19 21 19 18 19 18 18
29 29 29 30 31 31 24 26 24 22 22 21 18 18 17 17 18 17 18 18 18 18
27 26 26 26 26 24 25 23 21 19 21 20 19 17 18 17 17 18 19 18 18 20

GFSNIL_sfc_30mbdewp_024.txt.gz
Dewpoint
38 37 37 36 36 36 36 36 34 34 37 37 36 36 36 36 35 33 32 31 31 31
38 38 38 38 37 36 36 35 33 33 34 34 34 35 33 34 31 29 29 30 29 23
36 35 34 36 36 36 36 34 34 33 33 34 33 31 28 27 26 27 28 26 23 23
31 32 33 34 35 35 35 34 34 34 33 32 28 27 25 24 24 26 24 23 22 22
31 34 34 33 33 34 33 34 34 31 32 33 33 26 23 23 24 24 22 22 22 21
32 32 31 31 31 31 32 32 33 35 34 31 27 25 24 24 22 21 22 22 22 22
31 32 32 32 32 33 34 34 36 35 34 27 24 24 23 22 23 23 23 23 23 24
34 34 33 33 33 35 36 36 33 27 24 25 23 22 23 25 27 26 25 25 25 24
32 31 31 32 33 35 35 32 34 28 25 24 23 27 29 28 26 25 23 21 20 20
31 31 31 32 33 33 33 33 29 24 24 23 27 26 23 25 23 20 19 18 18 17
30 31 31 31 32 32 29 29 25 25 24 24 22 21 20 20 21 20 19 18 18 18
30 29 28 28 29 31 30 29 25 24 22 19 18 20 19 19 18 18 18 18 18 18
29 27 26 26 26 30 26 25 24 21 21 21 18 18 18 18 18 17 18 19 18 18
27 26 26 23 24 24 25 23 21 20 21 19 18 17 18 19 19 19 20 18 17 18

GFSNIL_sfc_30mbdewp_027.txt.gz
Dewpoint
40 39 39 39 39 39 38 38 38 37 37 37 37 36 36 36 34 35 30 28 26 27
39 39 38 37 38 38 38 37 38 36 35 35 36 36 36 33 32 30 28 26 28 27
36 34 35 36 36 37 38 38 37 36 36 35 35 33 31 28 27 27 26 26 27 25
31 33 34 34 35 35 35 32 34 35 35 34 31 31 33 29 26 26 25 26 25 23
32 33 31 31 31 32 31 33 34 34 33 33 34 32 32 26 26 25 25 23 23 23
31 31 31 31 31 31 32 34 35 34 35 35 34 27 26 26 24 23 23 24 24 23
32 33 32 32 31 32 34 36 36 36 32 31 26 25 24 23 24 26 25 24 23 21
34 34 32 31 32 33 35 35 33 30 27 26 25 23 26 27 25 23 20 19 17 16
34 32 31 32 33 33 34 33 32 30 28 25 25 29 25 24 22 19 16 14 14 14
32 30 31 31 30 29 33 32 30 27 25 25 25 23 21 21 20 17 15 14 14 14
30 30 30 29 27 28 32 30 30 27 25 24 20 21 20 20 17 16 15 15 15 15
30 29 28 27 26 27 29 31 27 25 23 20 18 19 19 19 19 18 17 17 16 16
29 29 27 27 26 25 29 27 25 23 21 20 19 18 18 19 20 19 17 17 14 14
29 28 27 26 24 24 25 26 25 23 22 20 20 19 18 20 20 18 17 15 12 12

GFSNIL_sfc_30mbdewp_030.txt.gz
Dewpoint
35 34 33 35 36 31 29 30 34 37 35 34 35 34 33 33 32 32 30 27 26 23
37 37 34 29 29 29 31 29 27 30 30 31 31 32 33 32 32 31 29 27 25 24
34 28 26 27 27 26 26 26 25 25 25 28 30 31 33 32 29 30 29 24 23 24
26 26 26 25 25 26 27 26 25 27 28 28 29 31 31 31 30 27 26 24 24 24
24 24 24 25 25 27 27 27 28 30 30 29 30 31 33 30 26 26 24 23 23 22
23 25 24 26 27 28 28 28 30 30 31 31 31 32 27 26 27 25 24 25 24 22
24 26 28 28 29 28 28 29 29 29 29 29 27 27 25 25 24 25 23 23 21 19
26 30 29 29 28 28 29 30 29 29 31 30 28 24 27 26 24 22 20 18 15 14
27 29 28 28 27 27 27 28 29 29 27 27 25 26 24 22 20 20 17 14 13 14
28 27 26 25 25 25 26 28 28 28 29 27 27 23 22 21 18 17 15 15 14 14
26 25 24 25 26 26 26 26 27 27 27 26 24 21 20 20 18 18 17 16 16 15
25 25 24 25 26 27 25 25 26 27 26 25 23 20 19 19 19 20 19 17 16 15
25 25 24 26 27 26 25 24 25 25 26 23 23 20 19 19 21 21 19 17 16 13
24 24 25 27 26 25 24 24 26 26 25 24 23 22 19 19 21 21 19 17 16 14

GFSNIL_sfc_30mbdewp_033.txt.gz
Dewpoint
33 32 31 33 32 28 28 29 30 29 29 30 30 29 30 32 34 33 34 34 31 28
34 34 31 29 28 27 28 25 23 26 25 25 25 27 28 30 33 33 32 32 31 31
35 31 27 27 27 27 26 26 26 25 25 26 27 27 27 28 31 32 34 32 29 28
30 27 27 26 26 25 26 26 25 25 26 27 26 26 30 30 32 30 29 27 28 28
28 25 25 25 24 26 27 26 25 26 27 27 28 30 31 30 27 28 27 27 27 25
24 25 25 23 25 27 27 25 25 27 27 27 27 28 28 27 27 27 27 26 25 20
23 26 24 25 27 27 26 26 27 27 27 27 27 26 26 26 25 26 24 20 19 18
24 25 25 27 28 27 26 27 27 26 27 28 28 26 27 25 24 20 18 18 17 15
22 23 25 26 27 25 24 25 26 26 27 26 25 26 23 22 22 20 17 16 15 15
21 24 24 24 23 23 24 26 26 26 27 29 28 24 22 21 20 19 18 18 17 16
22 23 23 22 22 24 25 25 25 26 28 29 26 23 21 21 20 19 19 19 18 16
20 21 22 22 22 24 25 25 25 25 28 26 26 23 21 19 20 21 20 20 17 17
20 22 22 22 23 25 25 24 23 23 24 25 25 23 21 20 21 22 21 19 17 16
22 22 22 23 24 25 24 24 26 28 27 26 26 25 22 20 20 22 21 19 17 17

GFSNIL_sfc_30mbdewp_036.txt.gz
Dewpoint
39 36 33 37 35 32 31 32 32 30 31 31 31 31 32 35 35 36 36 35 36 35
36 35 35 36 32 31 31 28 30 30 30 29 30 32 32 32 33 35 35 36 36 35
38 36 35 30 30 29 28 28 29 29 28 29 30 31 31 33 33 34 35 34 33 32
36 33 30 30 29 27 28 28 28 27 28 29 29 32 31 33 32 31 31 30 30 30
33 33 31 29 28 28 28 29 28 27 27 29 29 29 29 31 31 29 28 28 28 27
34 28 27 29 27 28 28 28 27 27 29 29 28 27 28 28 29 29 28 28 27 25
28 28 28 27 27 29 29 28 28 29 29 29 29 28 28 27 28 27 25 24 22 20
28 26 27 27 29 30 29 28 28 28 29 28 28 28 28 26 25 24 22 21 20 18
26 24 25 27 29 29 28 27 28 28 28 28 27 26 25 23 22 23 22 20 20 19
24 23 25 25 25 25 25 28 28 29 29 29 30 26 24 21 21 22 22 21 21 19
21 23 24 25 25 25 26 28 28 28 28 29 30 27 24 21 20 22 22 22 21 20
21 24 27 25 24 26 26 27 28 27 27 29 29 26 24 20 21 23 23 22 22 20
24 25 24 24 25 26 27 27 27 27 28 27 28 26 24 21 22 23 24 24 21 19
30 26 24 24 25 25 26 27 28 28 28 28 28 26 25 23 22 22 23 22 21 22

GFSNIL_sfc_30mbdewp_039.txt.gz
Dewpoint
37 35 37 35 34 32 33 32 30 31 30 29 30 31 31 31 32 34 36 35 35 36
37 36 36 35 32 33 31 31 30 29 29 29 30 31 30 33 34 35 35 35 35 36
36 35 36 32 31 31 30 29 29 28 28 28 29 31 32 32 32 33 33 33 32 31
36 35 31 31 32 30 30 29 28 28 27 27 29 31 30 31 31 31 30 30 29 29
34 33 31 32 31 29 29 30 28 28 27 29 31 28 28 30 30 28 28 28 27 27
34 32 32 32 33 30 30 29 28 28 28 30 30 27 28 27 29 29 28 28 26 24
33 31 31 31 30 30 30 28 28 28 29 31 30 28 29 28 28 26 23 23 22 21
33 33 33 33 31 31 29 28 28 28 30 30 29 29 29 27 25 23 23 22 21 20
35 35 29 29 29 29 29 28 28 29 29 29 28 27 27 24 23 22 21 20 22 21
30 28 28 27 26 26 25 27 28 28 30 29 29 28 26 23 21 21 21 22 22 20
31 27 27 26 27 27 28 27 29 28 28 28 31 29 27 23 21 21 22 23 22 21
28 28 28 27 28 28 26 27 28 29 27 28 30 29 27 22 20 22 23 23 23 23
29 28 28 31 29 28 28 27 28 28 28 27 28 29 26 23 22 22 23 23 23 20
30 30 31 29 28 26 26 26 26 28 28 28 28 27 28 26 22 22 22 23 22 21

GFSNIL_sfc_30mbdewp_042.txt.gz
Dewpoint
46 45 44 42 40 37 35 33 33 32 31 30 31 30 31 33 34 35 34 34 34 35
41 40 37 35 36 35 34 32 32 30 29 29 29 31 33 33 32 33 33 34 35 35
39 39 37 37 35 33 32 32 31 29 28 28 29 33 31 30 31 31 32 31 31 31
40 39 37 36 33 32 32 32 33 32 27 27 29 32 30 30 31 30 30 29 29 28
38 35 34 33 32 33 32 33 33 29 27 29 30 29 28 29 30 29 28 28 28 27
34 32 33 34 34 33 31 31 29 28 28 29 30 29 29 28 29 29 28 26 21 22
34 33 33 33 32 31 31 29 28 28 29 30 31 30 29 28 29 29 24 23 22 21
35 34 34 34 32 32 30 29 28 29 29 30 31 30 29 29 27 25 24 23 22 21
36 32 30 30 31 31 30 29 28 26 29 29 30 29 29 29 26 24 22 21 21 22
31 30 31 30 29 28 27 27 26 29 29 29 31 29 29 28 24 22 22 21 22 21
30 30 31 32 30 32 29 28 28 28 29 30 29 30 30 28 23 22 21 23 23 22
31 32 33 35 35 33 31 28 28 29 29 29 28 30 31 27 22 21 22 23 24 23
35 36 35 33 31 30 30 28 28 27 28 29 28 30 31 27 24 22 23 23 24 23
34 32 31 30 29 27 27 27 26 27 28 28 29 28 31 30 24 23 23 23 23 22

GFSNIL_sfc_30mbdewp_045.txt.gz
Dewpoint
51 49 48 47 45 41 37 35 34 34 34 34 31 31 31 33 35 34 33 33 34 34
48 46 44 43 42 39 36 35 36 36 33 31 31 32 33 34 32 32 32 33 34 34
46 42 41 41 38 35 36 38 36 32 33 33 33 32 34 31 31 31 32 31 31 31
42 40 40 38 37 37 37 34 34 38 35 33 30 32 31 30 31 31 30 30 30 29
41 40 39 37 36 35 34 37 39 36 32 29 30 31 30 29 30 29 28 28 28 27
41 38 38 36 35 37 38 35 33 31 29 29 30 31 30 29 30 29 29 29 28 24
38 38 38 37 36 34 33 30 29 29 29 29 30 30 30 29 28 29 29 28 23 22
37 36 35 34 33 33 31 30 30 29 30 30 31 31 31 30 29 29 28 25 24 22
36 34 34 34 32 30 30 29 31 34 30 29 31 30 30 30 29 28 26 24 23 22
33 33 33 33 34 34 36 37 36 32 30 29 29 30 31 31 29 27 25 23 22 21
33 33 33 34 37 37 37 35 30 29 28 29 29 30 30 30 29 25 24 23 22 22
35 35 37 37 38 37 33 30 28 28 29 28 28 29 30 31 28 24 23 23 24 23
36 39 38 37 32 31 30 29 28 27 27 27 27 28 29 32 28 25 24 23 23 25
36 33 32 30 29 28 27 27 27 27 27 27 28 28 29 31 28 26 26 25 24 24

GFSNIL_sfc_30mbdewp_048.txt.gz
Dewpoint
54 53 51 49 46 43 39 37 36 35 37 40 37 33 33 32 34 34 34 33 33 33
54 53 50 49 45 40 38 37 37 41 41 34 32 37 35 33 34 33 32 31 32 33
52 51 49 46 44 40 38 37 41 41 34 34 38 35 33 32 33 31 31 32 31 32
50 48 47 46 45 42 39 41 40 35 36 38 34 32 32 32 31 31 30 31 31 30
46 46 46 44 41 40 40 37 36 40 38 33 30 30 32 31 30 31 30 29 29 29
45 44 41 39 39 37 37 38 37 36 33 30 30 31 32 32 30 30 30 29 29 28
43 41 39 38 37 37 36 35 34 34 31 32 34 33 32 31 30 30 30 29 29 28
41 39 37 35 35 36 35 32 31 33 37 36 34 31 31 31 30 29 28 29 28 26
37 36 35 33 32 32 32 34 38 39 38 37 34 31 31 31 30 30 29 28 27 25
34 33 33 33 34 36 38 40 39 38 37 33 30 29 30 31 31 30 29 28 26 24
34 35 36 37 38 39 39 38 37 34 31 29 29 30 30 30 30 30 28 27 25 24
36 37 37 38 38 39 38 35 31 29 29 28 28 28 28 29 29 29 27 26 24 23
39 40 39 38 36 32 30 29 29 27 27 27 27 28 28 29 29 28 27 25 24 25
33 32 31 30 29 28 27 27 26 26 27 27 27 27 28 29 30 29 28 26 26 25

GFSNIL_sfc_30mbdewp_051.txt.gz
Dewpoint
56 55 53 53 51 48 47 45 43 41 38 36 39 41 37 37 35 36 36 36 36 32
56 55 55 54 52 49 46 42 41 39 37 41 39 36 39 37 35 36 37 36 34 32
56 56 55 54 51 47 44 41 40 39 41 37 37 40 37 35 35 35 35 33 33 32
55 55 54 51 49 46 43 40 41 42 37 36 41 39 34 33 33 34 33 33 32 31
53 52 51 49 47 44 41 41 42 38 37 41 36 33 33 35 32 33 32 32 32 31
50 49 49 46 44 43 42 40 39 39 39 36 36 35 35 34 34 34 33 32 32 31
47 46 44 42 41 40 40 39 39 38 38 38 34 34 34 35 34 33 32 32 32 31
44 41 40 38 38 39 38 38 36 35 35 37 37 36 36 35 34 32 32 32 32 31
38 36 35 35 34 33 37 36 37 38 39 39 39 38 37 34 32 31 31 30 30 31
34 33 34 36 38 38 38 39 39 40 40 40 39 35 31 30 31 32 31 31 30 30
36 37 39 39 39 40 40 39 39 38 38 35 32 30 30 30 30 29 29 30 30 30
38 39 39 39 39 39 38 37 35 33 31 30 30 30 29 29 29 29 29 29 29 29
39 37 35 35 33 32 31 29 29 28 29 29 28 29 29 29 30 30 29 29 29 28
29 29 29 29 29 28 27 28 28 28 28 28 28 29 29 29 29 30 30 29 28 29

GFSNIL_sfc_30mbdewp_054.txt.gz
Dewpoint
58 58 57 56 55 55 52 51 51 49 47 45 42 40 40 41 37 36 35 36 34 29
58 58 57 56 56 54 52 51 48 47 45 43 40 41 38 40 39 39 36 35 35 32
58 58 57 57 56 53 50 47 46 45 44 42 41 40 42 41 39 38 39 38 34 32
57 57 57 57 56 52 48 45 45 44 44 40 40 42 41 39 37 37 39 35 32 31
57 56 56 54 52 49 45 45 44 43 41 39 42 41 38 37 38 39 34 32 31 30
53 52 51 49 47 45 43 43 43 41 39 40 40 37 38 40 40 36 34 33 30 30
50 49 48 46 45 44 43 43 40 40 41 38 38 41 40 39 37 37 34 32 32 30
46 44 44 44 44 42 41 40 40 40 40 40 39 38 37 38 38 37 34 32 31 31
41 40 40 40 39 38 37 37 36 37 38 39 38 39 39 39 36 33 31 30 29 29
37 36 37 37 37 38 37 39 40 40 40 39 40 40 39 35 30 29 29 29 28 27
37 37 39 40 40 41 41 40 40 39 38 36 33 31 30 30 29 28 27 27 26 26
39 39 39 39 39 39 37 35 33 31 30 29 28 29 29 29 26 25 25 25 25 25
38 37 35 34 33 31 29 26 26 25 25 26 26 28 30 30 29 29 29 28 27 27
30 29 29 28 27 26 26 27 29 29 28 27 25 25 25 28 25 23 25 26 27 29

GFSNIL_sfc_30mbdewp_057.txt.gz
Dewpoint
57 57 58 57 56 56 56 56 55 52 52 52 48 44 45 45 43 40 38 36 40 36
60 59 59 59 58 57 57 56 54 53 51 47 47 47 46 43 40 40 39 39 40 39
59 60 59 59 58 57 57 54 52 50 48 47 46 46 43 43 41 39 41 40 39 39
59 59 58 58 58 57 54 51 49 47 47 45 45 43 43 41 39 39 40 37 38 40
58 58 58 57 56 54 51 48 47 46 46 43 43 43 41 38 38 39 37 38 40 37
55 54 53 51 49 48 46 46 46 44 42 41 42 41 39 38 39 40 41 41 37 36
52 50 49 48 46 45 45 44 43 42 41 41 40 39 39 40 41 41 39 39 38 36
48 47 47 46 45 44 43 42 41 41 40 39 39 40 41 41 39 40 39 40 38 34
45 45 45 44 43 42 41 41 40 40 40 40 40 39 38 38 39 38 34 31 29 29
42 41 41 40 40 39 39 39 39 40 40 40 40 39 39 39 36 30 29 28 28 27
40 39 40 40 40 40 41 41 40 40 40 39 36 36 33 30 28 26 25 24 24 26
40 40 40 39 39 40 39 38 35 31 30 28 27 28 30 29 28 28 28 27 26 26
39 39 38 37 36 33 30 27 25 24 25 27 27 27 25 24 23 23 23 22 22 23
34 33 33 30 27 25 25 26 29 27 26 22 23 23 23 25 22 23 24 23 23 24